User: anonymous   Login
Location: Unspecified
(0.0000°N, 0.0000°E)
Time: 19:59:35
(UTC+00:00)
Language:

AEROCUBE 2 - Orbit

View from above orbital plane
View from above orbital plane
View from above satellite
View from above satellite

Ground track
Ground track

The orbit data is extracted from the following two-line orbital elements,

1 31133U 07012R   17269.39870882  .00000176  00000-0  45754-4 0  9994
2 31133  98.0405 221.9474 0080618 181.8268 178.2650 14.58892916555192
Epoch (UTC): 26 September 2017 09:34:08
Eccentricity: 0.0080618
inclination: 98.0405°
perigee height: 640 km
apogee height: 754 km
right ascension of ascending node: 221.9474°
argument of perigee: 181.8268°
revolutions per day: 14.58892916
mean anomaly at epoch: 178.2650°
orbit number at epoch: 55519

The dashed part of the orbit path shows where the satellite is in the earth's shadow,  

DLR